FW1140 Weather Reports


time (UTC)temp
F
wind
direction
speed
knots
gust
knots
rain 1hr
in
rain 24hr
in
rain mn
in
humidity
%
barometer
mb
20260508213047 71 302 18.2 26.9 0.00 0.00 0.00 25 1001.7
20260508211552 71 329 13.0 25.2 0.00 0.00 0.00 28 1001.5
20260508210048 72 285 14.8 20.9 0.00 0.00 0.00 28 1001.5
20260508204546 71 293 11.3 23.5 0.00 0.00 0.00 29 1001.5
20260508203047 72 320 15.6 23.5 0.00 0.00 0.00 28 1001.5
20260508201545 72 276 15.6 26.9 0.00 0.00 0.00 27 1001.5
20260508200043 73 269 9.6 20.9 0.00 0.00 0.00 26 1001.6
20260508194542 72 317 13.9 20.9 0.00 0.00 0.00 26 1001.7
20260508193040 71 326 13.0 20.9 0.00 0.00 0.00 27 1001.9
20260508191546 71 340 16.5 26.1 0.00 0.00 0.00 27 1002.0
20260508190141 70 307 9.6 20.9 0.00 0.00 0.00 28 1002.0
20260508184539 72 323 18.2 25.2 0.00 0.00 0.00 27 1002.0
20260508183035 71 280 12.2 15.6 0.00 0.00 0.00 28 1002.3
20260508181535 70 266 9.6 18.2 0.00 0.00 0.00 27 1002.4
20260508180036 71 300 11.3 21.7 0.00 0.00 0.00 27 1002.6
20260508174530 68 279 11.3 15.6 0.00 0.00 0.00 29 1002.7
20260508173028 68 236 11.3 16.5 0.00 0.00 0.00 26 1002.9
20260508171528 69 268 11.3 16.5 0.00 0.00 0.00 26 1003.2
20260508170023 67 253 11.3 18.2 0.00 0.00 0.00 27 1003.5
20260508164521 66 263 10.4 18.2 0.00 0.00 0.00 28 1003.6
20260508163029 65 266 10.4 15.6 0.00 0.00 0.00 29 1003.7
20260508161520 66 236 13.0 17.4 0.00 0.00 0.00 28 1003.7
20260508160023 67 264 9.6 16.5 0.00 0.00 0.00 26 1003.7
20260508154519 66 265 9.6 18.2 0.00 0.00 0.00 30 1003.8
20260508153015 66 276 9.6 15.6 0.00 0.00 0.00 29 1004.0
20260508151512 65 260 10.4 16.5 0.00 0.00 0.00 30 1004.3
20260508150025 63 254 8.7 15.6 0.00 0.00 0.00 31 1004.5
20260508144506 63 226 11.3 17.4 0.00 0.00 0.00 30 1004.7
20260508143007 62 233 12.2 17.4 0.00 0.00 0.00 30 1004.8
20260508141605 62 250 11.3 16.5 0.00 0.00 0.00 31 1004.8
20260508140106 61 229 9.6 13.9 0.00 0.00 0.00 37 1004.9
20260508134549 60 240 9.6 15.6 0.00 0.00 0.00 38 1005.1
20260508133049 57 240 10.4 14.8 0.00 0.00 0.00 42 1005.5
20260508131541 55 221 9.6 12.2 0.00 0.00 0.00 45 1005.5
20260508130037 51 232 9.6 13.9 0.00 0.00 0.00 49 1005.6
20260508124534 49 237 12.2 15.6 0.00 0.00 0.00 52 1005.4
20260508123034 48 220 9.6 13.0 0.00 0.00 0.00 52 1005.3
20260508121529 48 226 10.4 14.8 0.00 0.00 0.00 53 1005.3
20260508120028 46 214 11.3 15.6 0.00 0.00 0.00 54 1005.4
20260508114524 45 226 7.8 11.3 0.00 0.00 0.00 57 1005.4
20260508113021 47 210 10.4 14.8 0.00 0.00 0.00 52 1005.4
20260508111519 47 213 10.4 14.8 0.00 0.00 0.00 51 1005.4
20260508110017 47 219 10.4 13.9 0.00 0.00 0.00 48 1005.6
20260508104517 47 210 9.6 13.0 0.00 0.00 0.00 47 1005.8
20260508103019 48 217 10.4 13.0 0.00 0.00 0.00 47 1005.8
20260508101517 46 217 8.7 11.3 0.00 0.00 0.00 50 1005.9
20260508100022 46 231 7.8 12.2 0.00 0.00 0.00 50 1005.9
20260508094513 46 226 7.8 11.3 0.00 0.00 0.00 48 1005.8
20260508093013 47 224 9.6 12.2 0.00 0.00 0.00 45 1005.8
20260508091510 48 207 10.4 13.0 0.00 0.00 0.00 44 1005.9
20260508090008 47 214 9.6 11.3 0.00 0.00 0.00 48 1005.9
20260508084506 47 214 9.6 13.0 0.00 0.00 0.00 50 1005.9
20260508083002 46 219 9.6 12.2 0.00 0.00 0.00 51 1006.0
20260508081501 46 208 9.6 11.3 0.00 0.00 0.00 51 1006.0
20260508080111 45 212 7.8 11.3 0.00 0.00 0.00 52 1006.2
20260508074614 45 214 9.6 12.2 0.00 0.00 0.00 53 1006.3
20260508073059 44 207 8.7 11.3 0.00 0.00 0.00 53 1006.3
20260508071554 44 209 8.7 11.3 0.00 0.00 0.00 51 1006.5
20260508070055 44 224 7.8 10.4 0.00 0.00 0.00 52 1006.6
20260508064557 43 209 7.8 10.4 0.00 0.00 0.00 54 1006.7
20260508063053 43 217 7.8 9.6 0.00 0.00 0.00 54 1006.8
20260508061548 44 210 7.0 9.6 0.00 0.00 0.00 52 1006.9
20260508060046 43 203 7.0 9.6 0.00 0.00 0.00 53 1007.0
20260508054548 43 210 7.0 8.7 0.00 0.00 0.00 54 1007.0
20260508053052 43 214 7.0 9.6 0.00 0.00 0.00 54 1007.0
20260508051546 43 217 7.0 8.7 0.00 0.00 0.00 54 1007.1
20260508050139 42 217 6.1 7.8 0.00 0.00 0.00 56 1007.1
20260508044536 42 214 6.1 7.8 0.00 0.00 0.00 57 1007.3
20260508043035 41 226 5.2 7.0 0.00 0.00 0.00 63 1007.6
20260508041534 41 229 5.2 6.1 0.00 0.00 0.00 64 1007.6
20260508040048 41 229 5.2 6.1 0.00 0.00 0.00 63 1007.7
20260508034541 40 229 5.2 6.1 0.00 0.00 0.00 63 1007.7
20260508033033 41 236 5.2 6.1 0.00 0.00 0.00 59 1007.8
20260508031534 42 229 5.2 6.1 0.00 0.00 0.00 56 1007.8
20260508030033 42 231 5.2 6.1 0.00 0.00 0.00 55 1007.8
20260508024532 42 232 5.2 6.1 0.00 0.00 0.00 55 1007.8
20260508023033 43 228 5.2 6.1 0.00 0.00 0.00 54 1007.8
20260508021533 44 221 3.5 4.3 0.00 0.00 0.00 51 1007.6
20260508020030 44 241 2.6 4.3 0.00 0.00 0.00 47 1007.6
20260508014530 46 317 1.7 2.6 0.00 0.00 0.00 44 1007.5
20260508013032 50 317 0.0 0.9 0.00 0.00 0.00 40 1007.5
20260508011529 56 317 0.9 2.6 0.00 0.00 0.00 31 1007.4
20260508010031 57 341 0.9 3.5 0.00 0.00 0.00 31 1007.3
20260508004532 58 329 3.5 6.1 0.00 0.00 0.00 29 1007.3
20260508003027 59 322 7.0 8.7 0.00 0.00 0.00 27 1007.3
20260508001526 60 342 4.3 8.7 0.00 0.00 0.00 27 1007.3
20260508000029 60 297 7.0 10.4 0.00 0.00 0.00 26 1007.4
20260507234540 60 302 4.3 13.9 0.00 0.00 0.00 26 1007.4
20260507233027 60 336 3.5 11.3 0.00 0.00 0.00 27 1007.6
20260507231525 61 342 7.8 13.9 0.00 0.00 0.00 25 1007.6
20260507230023 60 238 4.3 13.9 0.00 0.00 0.00 25 1007.6
20260507224528 61 324 9.6 14.8 0.00 0.00 0.00 25 1007.6
20260507223021 61 325 8.7 15.6 0.00 0.00 0.00 25 1007.7
20260507221529 60 336 1.7 9.6 0.00 0.00 0.00 25 1007.9
20260507220021 61 311 7.0 15.6 0.00 0.00 0.00 26 1007.9
20260507214519 62 278 11.3 15.6 0.00 0.00 0.00 27 1007.9